Wray Municipal Airport, CO

12:37 AM MDT on March 28, 2017 (GMT -0600)
Wray Municipal Airport

Weather History for K2V5 - February, 2014

Change the Weather History Date:

Monday, February 24, 2014

  Actual Average (KSYF) Record (KSYF)
Temperature  
Mean Temperature 30 °F -  
Max Temperature 46 °F 50 °F 51 °F (2016)
Min Temperature 15 °F 23 °F 4 °F (2015)
Degree Days  
Heating Degree Days 34    
Moisture  
Dew Point 24 °F    
Average Humidity 84    
Maximum Humidity 100    
Minimum Humidity 69    
Precipitation  
Precipitation 0.00 in - - ()
Sea Level Pressure  
Sea Level Pressure 30.08 in    
Wind  
Wind Speed 14 mph (ESE)    
Max Wind Speed 25 mph    
Max Gust Speed 31 mph    
Visibility 10 miles    
Events      
Averages and records for this station are not official NWS values.
T = Trace of Precipitation, MM = Missing Value Source: NWS Daily Summary

Daily Weather History Graph

Daily Weather History Graph

Search for Another Location

Airport or City:

Trip Planner

Search our weather history database for the weather conditions in past years. The results will help you decide how hot, cold, wet, or windy it might be!

Date:

Astronomy

Feb. 24, 2014 Rise Set
Actual Time 6:29 AM MST 5:35 PM MST
Civil Twilight 6:02 AM MST 6:02 PM MST
Nautical Twilight 5:30 AM MST 6:34 PM MST
Astronomical Twilight 4:59 AM MST 7:05 PM MST
Moon 2:30 AM MST (2/24) 12:38 PM MST (2/24)
Length of Visible Light 12h 00m
Length of Day
11h 05m
Waning Crescent, 27% of the Moon is Illuminated
Feb 24
Waning Crescent
Mar 1
New
Mar 8
First Quarter
Mar 16
Full
Mar 23
Last Quarter

Hourly Weather History & Observations

Time (MST) Temp. Windchill Dew Point Humidity Pressure Visibility Wind Dir Wind Speed Gust Speed Precip Events Conditions
12:15 AM 22.8 °F 10.9 °F 22.8 °F 100% 30.10 in 10.0 mi ESE 12.7 mph - N/A   Overcast
12:35 AM 23.0 °F 11.1 °F 23.0 °F 100% 30.09 in 10.0 mi SE 12.7 mph 17.3 mph N/A   Overcast
12:55 AM 24.4 °F 12.4 °F 24.4 °F 100% 30.08 in 7.0 mi SSE 13.8 mph - N/A   Overcast
1:15 AM 24.6 °F 12.2 °F 24.6 °F 100% 30.07 in 4.0 mi SE 15.0 mph - N/A   Overcast
1:35 AM - - - N/A% 30.05 in 5.0 mi SSE 16.1 mph 25.3 mph N/A   Overcast
1:55 AM - - - N/A% 30.06 in 5.0 mi SSE 12.7 mph - N/A   Haze
2:15 AM - - - N/A% 30.05 in 7.0 mi SSE 17.3 mph 21.9 mph N/A   Overcast
2:35 AM 25.2 °F 12.9 °F 25.2 °F 100% 30.04 in 7.0 mi South 15.0 mph 21.9 mph N/A   Overcast
2:55 AM 25.3 °F 13.6 °F 25.3 °F 100% 30.03 in 10.0 mi SSE 13.8 mph 19.6 mph N/A   Overcast
3:15 AM 25.5 °F 13.8 °F 25.5 °F 100% 30.03 in 10.0 mi SSE 13.8 mph 20.7 mph N/A   Overcast
3:35 AM 25.5 °F 15.5 °F 25.5 °F 100% 30.03 in 7.0 mi SSE 10.4 mph 17.3 mph N/A   Overcast
3:55 AM 25.7 °F 15.1 °F 25.7 °F 100% 30.04 in 7.0 mi SSE 11.5 mph - N/A   Overcast
4:15 AM 24.1 °F 13.1 °F 24.1 °F 100% 30.03 in 10.0 mi SE 11.5 mph - N/A   Overcast
4:35 AM 24.4 °F 13.0 °F 24.4 °F 100% 30.02 in 10.0 mi South 12.7 mph 19.6 mph N/A   Overcast
4:55 AM 26.6 °F 16.2 °F 24.8 °F 93% 30.02 in 10.0 mi South 11.5 mph 18.4 mph N/A   Overcast
5:15 AM 26.6 °F 15.2 °F 24.8 °F 93% 30.01 in 10.0 mi South 13.8 mph 18.4 mph N/A   Overcast
5:35 AM 26.6 °F 15.2 °F 24.8 °F 93% 30.01 in 10.0 mi South 13.8 mph - N/A   Overcast
5:55 AM 26.6 °F 14.7 °F 24.6 °F 92% 30.00 in 10.0 mi South 15.0 mph 18.4 mph N/A   Overcast
6:15 AM 26.6 °F 15.7 °F 24.3 °F 91% 30.00 in 10.0 mi South 12.7 mph 23.0 mph N/A   Overcast
6:35 AM 26.6 °F 15.7 °F 24.4 °F 92% 29.99 in 10.0 mi South 12.7 mph - N/A   Overcast
6:55 AM 26.6 °F 13.8 °F 24.6 °F 92% 29.99 in 10.0 mi South 17.3 mph 23.0 mph N/A   Overcast
7:15 AM 26.4 °F 15.0 °F 24.3 °F 92% 29.98 in 10.0 mi South 13.8 mph - N/A   Overcast
7:35 AM 26.6 °F 13.4 °F 24.3 °F 91% 29.99 in 10.0 mi South 18.4 mph 25.3 mph N/A   Overcast
7:55 AM 26.6 °F 15.7 °F 24.3 °F 91% 29.99 in 10.0 mi South 12.7 mph 20.7 mph N/A   Overcast
8:15 AM 27.0 °F 17.3 °F 24.4 °F 90% 29.99 in 10.0 mi South 10.4 mph - N/A   Overcast
8:35 AM 27.3 °F 14.8 °F 24.3 °F 88% 29.98 in 10.0 mi South 17.3 mph 21.9 mph N/A   Overcast
8:55 AM 27.9 °F 16.8 °F 24.8 °F 88% 29.98 in 10.0 mi South 13.8 mph - N/A   Overcast
9:15 AM 28.9 °F 19.8 °F 25.3 °F 86% 29.99 in 10.0 mi South 10.4 mph - N/A   Overcast
9:35 AM 30.2 °F 19.8 °F 25.9 °F 84% 29.96 in 10.0 mi South 13.8 mph - N/A   Overcast
9:55 AM 31.5 °F 23.5 °F 26.6 °F 82% 29.97 in 10.0 mi South 9.2 mph - N/A   Overcast
10:15 AM 32.0 °F 23.6 °F 26.8 °F 81% 29.96 in 10.0 mi SSE 10.4 mph - N/A   Mostly Cloudy
10:35 AM 32.5 °F 24.8 °F 27.5 °F 82% 29.97 in 10.0 mi South 9.2 mph - N/A   Scattered Clouds
10:55 AM 33.4 °F 27.3 °F 27.9 °F 80% 29.97 in 10.0 mi SSE 6.9 mph - N/A   Clear
11:15 AM 33.8 °F 28.6 °F 28.4 °F 81% 29.95 in 10.0 mi SSE 5.8 mph - N/A   Clear
11:35 AM 35.1 °F 28.6 °F 28.8 °F 78% 29.95 in 10.0 mi South 8.1 mph - N/A   Clear
11:55 AM 36.0 °F 30.3 °F 29.7 °F 78% 29.94 in 10.0 mi SSE 6.9 mph - N/A   Clear
12:15 PM 36.9 °F 32.2 °F 30.9 °F 79% 29.93 in 10.0 mi ESE 5.8 mph - N/A   Clear
12:35 PM 38.1 °F 33.7 °F 31.8 °F 78% 29.92 in 10.0 mi SE 5.8 mph - N/A   Clear
12:55 PM 39.7 °F 34.9 °F 33.1 °F 77% 29.92 in 10.0 mi East 6.9 mph - N/A   Clear
1:15 PM 41.2 °F 37.3 °F 33.8 °F 75% 29.91 in 10.0 mi SE 5.8 mph - N/A   Clear
1:35 PM 43.2 °F 39.7 °F 35.6 °F 75% 29.90 in 10.0 mi ESE 5.8 mph - N/A   Clear
1:55 PM 44.6 °F 40.7 °F 36.1 °F 72% 29.91 in 10.0 mi East 6.9 mph - N/A   Clear
2:15 PM 46.2 °F 43.3 °F 36.9 °F 70% 29.91 in 10.0 mi East 5.8 mph - N/A   Clear
2:35 PM 46.4 °F 41.9 °F 37.6 °F 71% 29.94 in 10.0 mi NNE 9.2 mph - N/A   Clear
2:55 PM 44.6 °F 36.9 °F 35.1 °F 69% 29.98 in 10.0 mi North 18.4 mph 21.9 mph N/A   Scattered Clouds
3:15 PM 38.3 °F 27.6 °F 31.6 °F 77% 30.00 in 10.0 mi North 23.0 mph 26.5 mph N/A   Mostly Cloudy
3:35 PM 35.1 °F 22.7 °F 28.9 °F 78% 30.02 in 7.0 mi North 25.3 mph 31.1 mph N/A   Overcast
3:55 PM 32.9 °F 21.6 °F 28.2 °F 83% 30.04 in 10.0 mi North 18.4 mph 29.9 mph N/A   Overcast
4:15 PM 31.8 °F 19.0 °F 27.3 °F 83% 30.07 in 10.0 mi North 23.0 mph 29.9 mph N/A   Overcast
4:35 PM 29.5 °F 15.3 °F 25.5 °F 85% 30.10 in 10.0 mi North 25.3 mph 31.1 mph N/A   Overcast
4:55 PM 27.5 °F 13.5 °F 23.0 °F 83% 30.13 in 10.0 mi North 21.9 mph 28.8 mph N/A   Overcast
5:15 PM 26.6 °F 13.4 °F 22.5 °F 84% 30.15 in 10.0 mi North 18.4 mph 29.9 mph N/A   Overcast
5:35 PM 26.6 °F 12.4 °F 21.7 °F 82% 30.17 in 10.0 mi North 21.9 mph 31.1 mph N/A   Overcast
5:55 PM 26.4 °F 12.5 °F 21.4 °F 81% 30.19 in 10.0 mi North 20.7 mph 29.9 mph N/A   Overcast
6:15 PM 26.6 °F 12.7 °F 20.5 °F 78% 30.20 in 10.0 mi North 20.7 mph 26.5 mph N/A   Overcast
6:55 PM 26.6 °F 15.2 °F 20.5 °F 78% 30.22 in 10.0 mi North 13.8 mph 24.2 mph N/A   Overcast
7:15 PM 26.4 °F 12.5 °F 20.3 °F 78% 30.23 in 10.0 mi North 20.7 mph 26.5 mph N/A   Overcast
7:35 PM 25.0 °F 10.6 °F 18.3 °F 76% 30.24 in 10.0 mi North 20.7 mph 25.3 mph N/A   Mostly Cloudy
7:55 PM 23.9 °F 9.9 °F 17.8 °F 77% 30.25 in 10.0 mi North 18.4 mph - N/A   Scattered Clouds
8:15 PM 23.0 °F 10.1 °F 17.6 °F 80% 30.26 in 10.0 mi NNE 15.0 mph 19.6 mph N/A   Scattered Clouds
8:35 PM 21.4 °F 7.5 °F 15.3 °F 77% 30.28 in 10.0 mi North 16.1 mph 24.2 mph N/A   Scattered Clouds
8:55 PM 19.4 °F 3.6 °F 13.1 °F 76% 30.31 in 10.0 mi North 19.6 mph - N/A   Mostly Cloudy
9:15 PM 19.0 °F 4.0 °F 11.5 °F 72% 30.32 in 10.0 mi North 17.3 mph 21.9 mph N/A   Overcast
9:35 PM 18.5 °F 6.1 °F 11.5 °F 74% 30.32 in 10.0 mi North 11.5 mph - N/A   Overcast
9:55 PM 17.6 °F 3.2 °F 9.1 °F 69% 30.32 in 10.0 mi North 15.0 mph - N/A   Overcast
10:15 PM 16.5 °F 1.3 °F 8.4 °F 70% 30.32 in 10.0 mi North 16.1 mph - N/A   Overcast
10:35 PM 16.3 °F 1.6 °F 8.8 °F 72% 30.32 in 10.0 mi North 15.0 mph 18.4 mph N/A   Overcast
10:55 PM 16.2 °F 2.5 °F 9.5 °F 75% 30.32 in 10.0 mi North 12.7 mph - N/A   Overcast
11:15 PM 15.8 °F 2.7 °F 9.5 °F 76% 30.31 in 10.0 mi North 11.5 mph - N/A   Overcast
11:35 PM 15.6 °F 3.2 °F 9.1 °F 76% 30.31 in 10.0 mi North 10.4 mph - N/A   Overcast
11:55 PM 15.3 °F 3.5 °F 9.0 °F 76% 30.30 in 10.0 mi North 9.2 mph - N/A   Overcast